Date String (YYYY-MM-DD hh:mm:ss) UTC,Instrument flags,absolute air pressure of the measurement (hPa),sample flow rate (lpm),inlet stack bypass flow (lpm),air temperature of the measurement (°C),ambient temperature measured by the external sensor (°C),aerosol sample conditioner tube jacket temperature (°C),OPC LED temperature (°C),internal box temperature (°C),relative humidity of the measurement (%),span deviation,mass concentration of particles derived from Lorenz-Mie calculation of OPC scattering (μg/m³),mass concentration of particles derived from Lorenz-Mie calculation of OPC scattering (μg/m³),mass concentration of particles derived from Lorenz-Mie calculation of OPC scattering (μg/m³)
DateTimeUTC,F1_M11,P_M11,Q1_M11,Q2_M11,T1_M11,T2_M11,T3_M11,T4_M11,T5_M11,U1_M11,ZSPAN_M11,X0_M11,X2_M11,X1_M11
2023-11-22 18:00:00,SystemResetWarning,0831.2,5.00,000.00,025.5,024.8,000.0,033.5,026.9,8.8,0000.0,0002.98,0000.61,0000.45
2023-11-22 18:01:00,SystemResetWarning,0831.2,5.00,000.00,025.5,024.8,000.0,033.5,026.9,8.7,0000.0,0003.00,0000.62,0000.45
2023-11-22 18:02:00,SystemResetWarning,0831.3,4.99,000.00,025.5,024.8,000.0,033.5,027.0,8.9,0000.0,0002.86,0000.59,0000.44
2023-11-22 18:03:00,SystemResetWarning,0831.3,5.00,000.00,025.5,024.9,000.0,033.5,027.0,9.0,0000.0,0002.77,0000.57,0000.43
2023-11-22 18:04:00,SystemResetWarning,0831.2,5.00,000.00,025.6,024.9,000.0,033.6,027.0,9.0,0000.0,0002.74,0000.57,0000.42
2023-11-22 18:05:00,SystemResetWarning,0831.2,5.00,000.00,025.6,024.9,000.0,033.6,027.0,8.8,0000.0,0002.50,0000.53,0000.41
2023-11-22 18:06:00,SystemResetWarning,0831.1,5.01,000.00,025.6,025.0,000.0,033.6,027.0,8.2,0000.0,0001.94,0000.53,0000.41
2023-11-22 18:07:00,SystemResetWarning,0831.1,5.01,000.00,025.6,025.0,000.0,033.6,027.0,8.1,0000.0,0002.22,0000.58,0000.41
2023-11-22 18:08:00,SystemResetWarning,0831.1,4.99,000.00,025.6,025.0,000.0,033.7,027.1,8.3,0000.0,0001.99,0000.60,0000.41
2023-11-22 18:09:00,SystemResetWarning,0831.2,4.99,000.00,025.7,025.0,000.0,033.7,027.1,8.6,0000.0,0002.92,0000.61,0000.41
2023-11-22 18:10:00,SystemResetWarning,0831.1,4.99,000.00,025.7,025.1,000.0,033.7,027.1,8.5,0000.0,0003.15,0000.60,0000.41
2023-11-22 18:11:00,SystemResetWarning,0831.0,5.01,000.00,025.7,025.1,000.0,033.7,027.1,8.5,0000.0,0003.14,0000.60,0000.41
2023-11-22 18:12:00,SystemResetWarning,0830.9,5.01,000.00,025.7,025.1,000.0,033.7,027.2,8.4,0000.0,0003.15,0000.60,0000.41
2023-11-22 18:13:00,SystemResetWarning,0830.9,4.99,000.00,025.8,025.1,000.0,033.8,027.2,8.0,0000.0,0003.12,0000.60,0000.41
2023-11-22 18:14:00,SystemResetWarning,0830.9,4.99,000.00,025.8,025.1,000.0,033.8,027.2,8.0,0000.0,0003.18,0000.61,0000.41
2023-11-22 18:15:00,SystemResetWarning,0830.9,5.00,000.00,025.8,025.2,000.0,033.8,027.2,7.8,0000.0,0003.25,0000.60,0000.40
2023-11-22 18:16:00,SystemResetWarning,0830.9,5.02,000.00,025.8,025.2,000.0,033.8,027.3,7.8,0000.0,0003.34,0000.61,0000.40
2023-11-22 18:17:00,SystemResetWarning,0830.9,5.00,000.00,025.8,025.2,000.0,033.9,027.3,8.0,0000.0,0005.00,0000.60,0000.39
2023-11-22 18:18:00,SystemResetWarning,0830.9,5.00,000.00,025.9,025.2,000.0,033.9,027.3,8.2,0000.0,0004.64,0000.57,0000.39
2023-11-22 18:19:00,SystemResetWarning,0830.8,5.00,000.00,025.9,025.2,000.0,033.9,027.3,8.2,0000.0,0004.35,0000.54,0000.38
2023-11-22 18:20:00,SystemResetWarning,0830.8,4.99,000.00,025.9,025.3,000.0,033.9,027.4,8.1,0000.0,0002.94,0000.52,0000.38
2023-11-22 18:21:00,SystemResetWarning,0830.7,4.99,000.00,025.9,025.3,000.0,034.0,027.4,8.1,0000.0,0002.73,0000.50,0000.36
2023-11-22 18:22:00,SystemResetWarning,0830.7,5.00,000.00,026.0,025.3,000.0,034.0,027.4,8.1,0000.0,0002.69,0000.48,0000.36
2023-11-22 18:23:00,SystemResetWarning,0830.7,5.00,000.00,026.0,025.3,000.0,034.0,027.4,8.1,0000.0,0002.66,0000.46,0000.36
2023-11-22 18:24:00,SystemResetWarning,0830.7,5.00,000.00,026.0,025.4,000.0,034.0,027.5,8.0,0000.0,0002.85,0000.48,0000.36
2023-11-22 18:25:00,SystemResetWarning,0830.6,5.00,000.00,026.0,025.4,000.0,034.1,027.5,8.0,0000.0,0002.87,0000.47,0000.36
2023-11-22 18:26:00,SystemResetWarning,0830.6,5.00,000.00,026.1,025.4,000.0,034.1,027.5,8.0,0000.0,0003.67,0000.46,0000.35
2023-11-22 18:27:00,SystemResetWarning,0830.5,5.01,000.00,026.1,025.4,000.0,034.1,027.5,7.9,0000.0,0003.90,0000.45,0000.35
2023-11-22 18:28:00,SystemResetWarning,0830.7,5.00,000.00,026.1,025.5,000.0,034.1,027.5,7.8,0000.0,0002.25,0000.44,0000.34
2023-11-22 18:29:00,SystemResetWarning,0830.5,5.00,000.00,026.1,025.5,000.0,034.1,027.6,7.8,0000.0,0002.18,0000.43,0000.33
2023-11-22 18:30:00,SystemResetWarning,0830.4,5.00,000.00,026.2,025.5,000.0,034.2,027.6,7.9,0000.0,0002.27,0000.45,0000.33
2023-11-22 18:31:00,SystemResetWarning,0830.6,5.00,000.00,026.2,025.5,000.0,034.2,027.6,7.9,0000.0,0002.26,0000.46,0000.34
2023-11-22 18:32:00,SystemResetWarning,0830.5,5.00,000.00,026.2,025.6,000.0,034.2,027.6,8.0,0000.0,0002.24,0000.46,0000.34
2023-11-22 18:33:00,SystemResetWarning,0830.4,5.00,000.00,026.2,025.6,000.0,034.2,027.6,8.0,0000.0,0002.26,0000.48,0000.34
2023-11-22 18:34:00,SystemResetWarning,0830.5,4.99,000.00,026.2,025.6,000.0,034.3,027.6,8.0,0000.0,0002.27,0000.48,0000.35
2023-11-22 18:35:00,SystemResetWarning,0830.3,5.00,000.00,026.3,025.6,000.0,034.3,027.7,8.2,0000.0,0002.21,0000.47,0000.34
2023-11-22 18:36:00,SystemResetWarning,0830.4,4.99,000.00,026.3,025.6,000.0,034.3,027.7,8.2,0000.0,0002.14,0000.46,0000.33
2023-11-22 18:37:00,SystemResetWarning,0830.3,5.00,000.00,026.3,025.7,000.0,034.3,027.7,8.1,0000.0,0001.35,0000.46,0000.34
2023-11-22 18:38:00,SystemResetWarning,0830.3,5.00,000.00,026.3,025.7,000.0,034.4,027.7,8.1,0000.0,0001.64,0000.46,0000.35
2023-11-22 18:39:00,SystemResetWarning,0830.3,5.00,000.00,026.4,025.7,000.0,034.4,027.8,7.9,0000.0,0003.18,0000.46,0000.35
2023-11-22 18:40:00,SystemResetWarning,0830.3,5.00,000.00,026.4,025.7,000.0,034.4,027.8,7.8,0000.0,0004.32,0000.45,0000.36
2023-11-22 18:41:00,SystemResetWarning,0830.2,5.00,000.00,026.4,025.7,000.0,034.4,027.8,7.8,0000.0,0004.28,0000.45,0000.35
2023-11-22 18:42:00,SystemResetWarning,0830.2,5.00,000.00,026.4,025.7,000.0,034.4,027.8,7.8,0000.0,0004.54,0000.42,0000.35
2023-11-22 18:43:00,SystemResetWarning,0830.2,5.00,000.00,026.4,025.8,000.0,034.5,027.8,7.8,0000.0,0005.18,0000.42,0000.35
2023-11-22 18:44:00,SystemResetWarning,0830.3,5.00,000.00,026.5,025.8,000.0,034.5,027.9,7.9,0000.0,0005.20,0000.43,0000.35
2023-11-22 18:45:00,SystemResetWarning,0830.2,5.00,000.00,026.5,025.8,000.0,034.5,027.9,7.8,0000.0,0005.20,0000.42,0000.35
2023-11-22 18:46:00,SystemResetWarning,0830.2,5.00,000.00,026.5,025.8,000.0,034.5,027.9,7.8,0000.0,0005.84,0000.45,0000.35
2023-11-22 18:47:00,SystemResetWarning,0830.2,5.00,000.00,026.5,025.8,000.0,034.5,027.9,8.0,0000.0,0005.93,0000.49,0000.36
2023-11-22 18:48:00,SystemResetWarning,0830.2,4.99,000.00,026.5,025.9,000.0,034.6,028.0,8.2,0000.0,0006.32,0000.50,0000.35
2023-11-22 18:49:00,SystemResetWarning,0830.1,5.00,000.00,026.6,025.9,000.0,034.6,028.0,8.2,0000.0,0005.89,0000.51,0000.35
2023-11-22 18:50:00,SystemResetWarning,0830.1,4.99,000.00,026.6,025.9,000.0,034.6,028.0,8.0,0000.0,0005.57,0000.53,0000.35
2023-11-22 18:51:00,SystemResetWarning,0830.1,5.00,000.00,026.6,025.9,000.0,034.6,028.0,7.8,0000.0,0004.41,0000.53,0000.35
2023-11-22 18:52:00,SystemResetWarning,0830.1,5.00,000.00,026.6,025.9,000.0,034.7,028.0,7.9,0000.0,0004.41,0000.53,0000.35
2023-11-22 18:53:00,SystemResetWarning,0830.1,5.00,000.00,026.6,026.0,000.0,034.7,028.1,8.0,0000.0,0004.29,0000.54,0000.36
2023-11-22 18:54:00,SystemResetWarning,0830.1,5.00,000.00,026.7,026.0,000.0,034.7,028.1,8.0,0000.0,0003.64,0000.56,0000.36
2023-11-22 18:55:00,SystemResetWarning,0830.0,5.00,000.00,026.7,026.0,000.0,034.7,028.1,8.1,0000.0,0003.77,0000.57,0000.37
2023-11-22 18:56:00,SystemResetWarning,0830.0,5.00,000.00,026.7,026.0,000.0,034.7,028.1,8.0,0000.0,0003.79,0000.57,0000.36
2023-11-22 18:57:00,SystemResetWarning,0830.0,5.00,000.00,026.7,026.1,000.0,034.8,028.1,8.0,0000.0,0003.35,0000.55,0000.36
2023-11-22 18:58:00,SystemResetWarning,0830.0,5.00,000.00,026.8,026.1,000.0,034.8,028.2,8.1,0000.0,0003.02,0000.54,0000.36
2023-11-22 18:59:00,SystemResetWarning,0830.0,5.01,000.00,026.8,026.1,000.0,034.8,028.2,8.1,0000.0,0002.89,0000.54,0000.36
